Weather History for Mitchell, SD

Change the Weather History Date:

Monday, December 17, 2012

  Actual Average Record
Temperature  
Mean Temperature 27 °F 20 °F  
Max Temperature 28 °F 29 °F 58 °F (1962)
Min Temperature 25 °F 11 °F -24 °F (1922)
Degree Days  
Heating Degree Days 38 45  
Month to date heating degree days 579 725  
Since 1 July heating degree days 2105 2293  
Cooling Degree Days 0 0  
Month to date cooling degree days 0 0  
Year to date cooling degree days 1236 824  
Moisture  
Dew Point 24 °F    
Average Humidity 88    
Maximum Humidity 92    
Minimum Humidity 84    
Precipitation  
Precipitation T in 0.02 in 0.80 in (1908)
Month to date precipitation 0.69 0.30  
Year to date precipitation 21.85 21.37  
Snow  
Snow T in - 11.00 in (1908)
Month to date snowfall 3.5  
Since 1 July snowfall 4.2  
Snow Depth 1.00 in    
Sea Level Pressure  
Sea Level Pressure 29.72 in    
Wind  
Wind Speed 6 mph (SE)    
Max Wind Speed 18 mph    
Max Gust Speed 21 mph    
Visibility 8 miles    
Events      
T = Trace of Precipitation, MM = Missing Value Source: NWS Daily Summary

Daily Weather History Graph

Daily Weather History Graph

Search for Another Location

Airport:

Trip Planner

Search our weather history database for the weather conditions in past years. The results will help you decide how hot, cold, wet, or windy it might be!

Date:

Astronomy

Dec. 17, 2012 Rise Set
Actual Time 8:00 AM CST 4:56 PM CST
Civil Twilight 7:27 AM CST 5:29 PM CST
Nautical Twilight 6:51 AM CST 6:05 PM CST
Astronomical Twilight 6:16 AM CST 6:40 PM CST
Moon 11:02 AM CST 10:28 PM CST
Length of Visible Light 10h 01m
Length of Day
8h 55m
Waxing Crescent, 25% of the Moon is Illuminated
Dec 17
Waxing Crescent
Dec 19
First Quarter
Dec 28
Full
Jan 4
Last Quarter
Jan 11
New

Hourly Weather History & Observations

Time (CST) Temp. Windchill Dew Point Humidity Pressure Visibility Wind Dir Wind Speed Gust Speed Precip Events Conditions
12:53 AM 27.0 °F 18.7 °F 25.0 °F 92% 29.80 in 10.0 mi East 8.1 mph - N/A   Overcast
1:53 AM 27.0 °F 21.6 °F 25.0 °F 92% 29.79 in 9.0 mi SE 4.6 mph - N/A   Overcast
2:53 AM 27.0 °F 19.5 °F 24.1 °F 89% 29.79 in 10.0 mi SE 6.9 mph - N/A   Overcast
3:53 AM 26.1 °F - 24.1 °F 92% 29.79 in 10.0 mi Calm Calm - N/A   Overcast
4:53 AM 26.1 °F - 24.1 °F 92% 29.78 in 9.0 mi Calm Calm - N/A   Overcast
5:53 AM 26.1 °F - 23.0 °F 88% 29.77 in 10.0 mi Calm Calm - N/A   Overcast
6:53 AM 25.0 °F 19.3 °F 23.0 °F 92% 29.78 in 10.0 mi East 4.6 mph - 0.00 in   Overcast
7:53 AM 25.0 °F 18.1 °F 23.0 °F 92% 29.77 in 8.0 mi ESE 5.8 mph - N/A   Overcast
8:53 AM 25.0 °F 20.7 °F 21.9 °F 88% 29.78 in 7.0 mi SE 3.5 mph - N/A   Overcast
9:53 AM 25.0 °F 20.7 °F 23.0 °F 92% 29.77 in 6.0 mi ESE 3.5 mph - N/A   Overcast
10:53 AM 26.1 °F - 23.0 °F 88% 29.76 in 4.0 mi Calm Calm - N/A   Overcast
11:53 AM 26.1 °F - 23.0 °F 88% 29.74 in 9.0 mi Calm Calm - N/A   Overcast
12:53 PM 27.0 °F - 24.1 °F 89% 29.71 in 10.0 mi Calm Calm - N/A   Overcast
1:53 PM 27.0 °F 23.0 °F 25.0 °F 92% 29.69 in 5.0 mi SW 3.5 mph - N/A   Overcast
2:53 PM 27.0 °F 20.5 °F 25.0 °F 92% 29.67 in 8.0 mi South 5.8 mph - N/A   Overcast
3:53 PM 28.0 °F 20.8 °F 25.0 °F 88% 29.67 in 8.0 mi SSE 6.9 mph - N/A   Overcast
6:53 PM 28.0 °F 18.6 °F 25.0 °F 88% 29.65 in 9.0 mi SSE 10.4 mph - N/A   Overcast
7:53 PM 28.0 °F 17.5 °F 24.1 °F 85% 29.65 in 10.0 mi SE 12.7 mph - N/A   Overcast
8:53 PM 28.0 °F 17.0 °F 24.1 °F 85% 29.63 in 9.0 mi SE 13.8 mph - N/A   Overcast
9:53 PM 27.0 °F 16.1 °F 24.1 °F 89% 29.62 in 8.0 mi SE 12.7 mph - N/A   Overcast
10:53 PM 27.0 °F 16.1 °F 25.0 °F 92% 29.60 in 6.0 mi SE 12.7 mph - N/A   Overcast
11:53 PM 27.0 °F 16.7 °F 25.0 °F 92% 29.59 in 5.0 mi SE 11.5 mph - N/A   Overcast